カタログに戻る

STARLINK-11288

運用中通信VLEO
NORAD 61002·PAYLOAD·🇺🇸 United States

打ち上げ Sep 5, 2024 から Cape Canaveral Space Force Station

Loading…

次のパス (今後24時間)

TLE

最新Source: CelesTrak SupGP

元期: Sep 14, 2026, 21:24 UTC

1 61002C 24158N   26257.89215278  .00056810  00000+0  46797-3 0  2575
2 61002  53.1571  68.4105 0001096  86.8035 255.6395 15.69680436    17

AllMySatでSTARLINK-11288をリアルタイム追跡

Download on the App Store